User: anonymous   Login
Location: Theydon Bois
(51.6750°N, 0.1050°E)
Time: 06:23:33
(UTC+00:00)
Language:

Cosmos 2322 - Orbit

View from above orbital plane
View from above orbital plane
View from above satellite
View from above satellite

Ground track
Ground track

The orbit data is extracted from the following two-line orbital elements,

1 23704U 95058A   17348.50611384 +.00000238 +00000-0 +15220-3 0  9990
2 23704 070.9838 025.8465 0010149 190.8962 169.1941 14.13383342141114
Epoch (UTC): 14 December 2017 12:08:48
Eccentricity: 0.0010149
inclination: 70.9838°
perigee height: 840 km
apogee height: 855 km
right ascension of ascending node: 25.8465°
argument of perigee: 190.8962°
revolutions per day: 14.13383342
mean anomaly at epoch: 169.1941°
orbit number at epoch: 14111

The dashed part of the orbit path shows where the satellite is in the earth's shadow,  

DLR